Time,TemperatureF,DewpointF,PressureIn,WindDirection,WindDirectionDegrees,WindSpeedMPH,WindSpeedGustMPH,Humidity,HourlyPrecipIn,Conditions,Clouds,dailyrainin,SoftwareType,DateUTC
2013-03-01 00:02:00,32.0,24.0,29.99,West,275,1.0,-999.0,73,-99.99,,,-99.99,,2013-03-01 05:02:00,
2013-03-01 00:11:00,32.0,24.0,29.99,West,275,1.0,-999.0,73,-99.99,,,-99.99,,2013-03-01 05:11:00,
2013-03-01 00:22:00,32.0,25.0,29.99,West,273,1.0,-999.0,74,-99.99,,,-99.99,,2013-03-01 05:22:00,
2013-03-01 00:33:00,32.0,25.0,29.99,West,273,1.0,-999.0,74,-99.99,,,-99.99,,2013-03-01 05:33:00,
2013-03-01 00:42:00,32.0,25.0,29.99,West,273,1.0,-999.0,74,-99.99,,,-99.99,,2013-03-01 05:42:00,
2013-03-01 00:53:00,32.0,25.0,29.97,West,276,1.0,-999.0,74,-99.99,,,-99.99,,2013-03-01 05:53:00,
2013-03-01 01:02:00,32.0,25.0,29.97,West,259,0.0,-999.0,74,-99.99,,,-99.99,,2013-03-01 06:02:00,
2013-03-01 01:12:00,32.0,25.0,29.96,SSW,203,0.0,-999.0,74,-99.99,,,-99.99,,2013-03-01 06:12:00,
2013-03-01 01:22:00,32.0,25.0,29.96,SSW,203,0.0,-999.0,74,-99.99,,,-99.99,,2013-03-01 06:22:00,
2013-03-01 01:32:00,32.0,25.0,29.97,WSW,248,0.0,-999.0,75,-99.99,,,-99.99,,2013-03-01 06:32:00,
2013-03-01 01:42:00,32.0,25.0,29.97,WSW,248,0.0,-999.0,75,-99.99,,,-99.99,,2013-03-01 06:42:00,
2013-03-01 01:53:00,31.0,24.0,29.97,WNW,297,0.0,-999.0,76,-99.99,,,-99.99,,2013-03-01 06:53:00,
2013-03-01 02:02:00,31.0,24.0,29.98,NNE,15,0.0,-999.0,76,-99.99,,,-99.99,,2013-03-01 07:02:00,
2013-03-01 02:11:00,31.0,24.0,29.98,NNE,15,0.0,-999.0,76,-99.99,,,-99.99,,2013-03-01 07:11:00,
2013-03-01 02:22:00,31.0,24.0,29.97,NNE,15,0.0,-999.0,76,-99.99,,,-99.99,,2013-03-01 07:22:00,
2013-03-01 02:32:00,31.0,25.0,29.97,ENE,71,0.0,-999.0,77,-99.99,,,-99.99,,2013-03-01 07:32:00,
2013-03-01 02:42:00,31.0,25.0,29.97,ENE,71,0.0,-999.0,77,-99.99,,,-99.99,,2013-03-01 07:42:00,
2013-03-01 02:52:00,31.0,25.0,29.97,West,262,0.0,-999.0,77,-99.99,,,-99.99,,2013-03-01 07:52:00,
2013-03-01 03:02:00,31.0,25.0,29.97,West,262,0.0,-999.0,77,-99.99,,,-99.99,,2013-03-01 08:02:00,
2013-03-01 03:12:00,31.0,25.0,29.97,West,262,0.0,-999.0,77,-99.99,,,-99.99,,2013-03-01 08:12:00,
2013-03-01 03:22:00,30.0,24.0,29.97,SE,128,0.0,-999.0,77,-99.99,,,-99.99,,2013-03-01 08:22:00,
2013-03-01 03:32:00,30.0,24.0,29.97,SE,128,0.0,-999.0,78,-99.99,,,-99.99,,2013-03-01 08:32:00,
2013-03-01 03:42:00,30.0,24.0,29.97,SE,128,0.0,-999.0,78,-99.99,,,-99.99,,2013-03-01 08:42:00,
2013-03-01 03:53:00,30.0,24.0,29.97,South,179,0.0,-999.0,78,-99.99,,,-99.99,,2013-03-01 08:53:00,
2013-03-01 04:02:00,30.0,24.0,29.98,South,179,0.0,-999.0,79,-99.99,,,-99.99,,2013-03-01 09:02:00,
2013-03-01 04:12:00,30.0,24.0,29.98,South,179,0.0,-999.0,79,-99.99,,,-99.99,,2013-03-01 09:12:00,
2013-03-01 04:22:00,30.0,25.0,29.98,South,180,0.0,-999.0,80,-99.99,,,-99.99,,2013-03-01 09:22:00,
2013-03-01 04:32:00,30.0,25.0,29.99,WSW,243,0.0,-999.0,81,-99.99,,,-99.99,,2013-03-01 09:32:00,
2013-03-01 04:42:00,30.0,25.0,29.99,WSW,243,0.0,-999.0,81,-99.99,,,-99.99,,2013-03-01 09:42:00,
2013-03-01 04:52:00,30.0,25.0,29.99,West,268,0.0,-999.0,82,-99.99,,,-99.99,,2013-03-01 09:52:00,
2013-03-01 05:02:00,31.0,26.0,29.99,NNE,17,0.0,-999.0,80,-99.99,,,-99.99,,2013-03-01 10:02:00,
2013-03-01 05:12:00,31.0,26.0,29.99,WSW,249,0.0,-999.0,80,-99.99,,,-99.99,,2013-03-01 10:12:00,
2013-03-01 05:22:00,31.0,26.0,29.99,WSW,249,0.0,-999.0,80,-99.99,,,-99.99,,2013-03-01 10:22:00,
2013-03-01 05:32:00,32.0,26.0,29.98,WSW,249,0.0,-999.0,79,-99.99,,,-99.99,,2013-03-01 10:32:00,
2013-03-01 05:42:00,32.0,26.0,29.98,WSW,249,0.0,-999.0,79,-99.99,,,-99.99,,2013-03-01 10:42:00,
2013-03-01 05:53:00,32.0,26.0,29.99,WSW,250,0.0,-999.0,78,-99.99,,,-99.99,,2013-03-01 10:53:00,
2013-03-01 06:02:00,31.0,25.0,29.99,WSW,253,0.0,-999.0,77,-99.99,,,-99.99,,2013-03-01 11:02:00,
2013-03-01 06:11:00,31.0,25.0,29.99,WSW,253,0.0,-999.0,77,-99.99,,,-99.99,,2013-03-01 11:11:00,
2013-03-01 06:22:00,31.0,25.0,29.99,WSW,253,0.0,-999.0,77,-99.99,,,-99.99,,2013-03-01 11:22:00,
2013-03-01 06:32:00,31.0,25.0,29.98,WSW,253,0.0,-999.0,78,-99.99,,,-99.99,,2013-03-01 11:32:00,
2013-03-01 06:42:00,31.0,25.0,29.98,WSW,253,0.0,-999.0,78,-99.99,,,-99.99,,2013-03-01 11:42:00,
2013-03-01 06:52:00,30.0,24.0,29.99,WSW,253,0.0,-999.0,79,-99.99,,,-99.99,,2013-03-01 11:52:00,
2013-03-01 07:02:00,30.0,25.0,29.99,WSW,253,0.0,-999.0,80,-99.99,,,-99.99,,2013-03-01 12:02:00,
2013-03-01 07:11:00,30.0,25.0,29.99,WSW,253,0.0,-999.0,80,-99.99,,,-99.99,,2013-03-01 12:11:00,
2013-03-01 07:21:00,29.0,24.0,29.99,WSW,253,0.0,-999.0,80,-99.99,,,-99.99,,2013-03-01 12:21:00,
2013-03-01 07:32:00,29.0,24.0,29.99,WSW,253,0.0,-999.0,81,-99.99,,,-99.99,,2013-03-01 12:32:00,
2013-03-01 07:42:00,29.0,24.0,29.99,WSW,253,0.0,-999.0,81,-99.99,,,-99.99,,2013-03-01 12:42:00,
2013-03-01 07:52:00,29.0,24.0,30.00,WSW,253,0.0,-999.0,82,-99.99,,,-99.99,,2013-03-01 12:52:00,
2013-03-01 08:01:00,29.0,25.0,30.01,WSW,253,0.0,-999.0,83,-99.99,,,-99.99,,2013-03-01 13:01:00,
2013-03-01 08:11:00,30.0,26.0,30.01,WSW,253,0.0,-999.0,86,-99.99,,,-99.99,,2013-03-01 13:11:00,
2013-03-01 08:22:00,30.0,26.0,30.01,WSW,253,0.0,-999.0,86,-99.99,,,-99.99,,2013-03-01 13:22:00,
2013-03-01 08:32:00,32.0,27.0,30.01,WSW,253,0.0,-999.0,82,-99.99,,,-99.99,,2013-03-01 13:32:00,
2013-03-01 08:42:00,32.0,27.0,30.01,WSW,253,0.0,-999.0,82,-99.99,,,-99.99,,2013-03-01 13:42:00,
2013-03-01 08:52:00,33.0,28.0,30.02,WSW,253,0.0,-999.0,81,-99.99,,,-99.99,,2013-03-01 13:52:00,
2013-03-01 09:01:00,35.0,28.0,30.02,NE,48,0.0,-999.0,76,-99.99,,,-99.99,,2013-03-01 14:01:00,
2013-03-01 09:11:00,35.0,28.0,30.02,NE,48,0.0,-999.0,76,-99.99,,,-99.99,,2013-03-01 14:11:00,
2013-03-01 09:21:00,35.0,28.0,30.02,NE,49,0.0,-999.0,75,-99.99,,,-99.99,,2013-03-01 14:21:00,
2013-03-01 09:32:00,36.0,29.0,30.02,NNE,13,0.0,-999.0,74,-99.99,,,-99.99,,2013-03-01 14:32:00,
2013-03-01 09:42:00,36.0,29.0,30.02,NNE,13,0.0,-999.0,74,-99.99,,,-99.99,,2013-03-01 14:42:00,
2013-03-01 09:52:00,37.0,28.0,30.02,WNW,302,0.0,-999.0,71,-99.99,,,-99.99,,2013-03-01 14:52:00,
2013-03-01 10:02:00,37.0,28.0,30.02,NNW,342,0.0,-999.0,69,-99.99,,,-99.99,,2013-03-01 15:02:00,
2013-03-01 10:11:00,38.0,29.0,30.02,NW,310,0.0,-999.0,70,-99.99,,,-99.99,,2013-03-01 15:11:00,
2013-03-01 10:21:00,38.0,29.0,30.02,NW,310,0.0,-999.0,70,-99.99,,,-99.99,,2013-03-01 15:21:00,
2013-03-01 10:32:00,39.0,30.0,30.02,West,277,0.0,-999.0,70,-99.99,,,-99.99,,2013-03-01 15:32:00,
2013-03-01 10:42:00,39.0,30.0,30.02,West,277,0.0,-999.0,70,-99.99,,,-99.99,,2013-03-01 15:42:00,
2013-03-01 10:52:00,40.0,29.0,30.02,SW,227,1.0,-999.0,64,-99.99,,,-99.99,,2013-03-01 15:52:00,
2013-03-01 11:01:00,40.0,29.0,30.03,NNE,15,1.0,-999.0,64,-99.99,,,-99.99,,2013-03-01 16:01:00,
2013-03-01 11:11:00,40.0,29.0,30.03,NNE,15,1.0,-999.0,64,-99.99,,,-99.99,,2013-03-01 16:11:00,
2013-03-01 11:21:00,41.0,29.0,30.03,SW,233,1.0,-999.0,63,-99.99,,,-99.99,,2013-03-01 16:21:00,
2013-03-01 11:32:00,41.0,29.0,30.02,West,260,1.0,-999.0,62,-99.99,,,-99.99,,2013-03-01 16:32:00,
2013-03-01 11:42:00,41.0,29.0,30.02,West,260,1.0,-999.0,62,-99.99,,,-99.99,,2013-03-01 16:42:00,
2013-03-01 11:52:00,40.0,29.0,30.02,NE,49,1.0,-999.0,64,-99.99,,,-99.99,,2013-03-01 16:52:00,
2013-03-01 12:01:00,39.0,29.0,30.02,West,265,1.0,-999.0,66,-99.99,,,-99.99,,2013-03-01 17:01:00,
2013-03-01 12:11:00,39.0,29.0,30.02,West,265,1.0,-999.0,66,-99.99,,,-99.99,,2013-03-01 17:11:00,
2013-03-01 12:21:00,39.0,29.0,30.02,West,265,1.0,-999.0,66,-99.99,,,-99.99,,2013-03-01 17:21:00,
2013-03-01 12:32:00,40.0,29.0,30.02,NE,46,1.0,-999.0,65,-99.99,,,-99.99,,2013-03-01 17:32:00,
2013-03-01 12:42:00,39.0,29.0,30.02,ESE,117,1.0,-999.0,68,-99.99,,,-99.99,,2013-03-01 17:42:00,
2013-03-01 12:52:00,39.0,29.0,30.02,ESE,117,1.0,-999.0,68,-99.99,,,-99.99,,2013-03-01 17:52:00,
2013-03-01 13:01:00,40.0,30.0,30.01,NNE,28,0.0,-999.0,67,-99.99,,,-99.99,,2013-03-01 18:01:00,
2013-03-01 13:12:00,40.0,30.0,30.01,NNE,28,0.0,-999.0,67,-99.99,,,-99.99,,2013-03-01 18:12:00,
2013-03-01 13:22:00,39.0,29.0,30.01,West,263,1.0,-999.0,67,-99.99,,,-99.99,,2013-03-01 18:22:00,
2013-03-01 13:32:00,40.0,30.0,30.00,West,269,0.0,-999.0,66,-99.99,,,-99.99,,2013-03-01 18:32:00,
2013-03-01 13:42:00,39.0,29.0,29.99,North,5,0.0,-999.0,68,-99.99,,,-99.99,,2013-03-01 18:42:00,
2013-03-01 13:52:00,39.0,29.0,29.99,North,5,0.0,-999.0,68,-99.99,,,-99.99,,2013-03-01 18:52:00,
2013-03-01 14:01:00,40.0,30.0,29.99,SSW,203,0.0,-999.0,66,-99.99,,,-99.99,,2013-03-01 19:01:00,
2013-03-01 14:11:00,40.0,30.0,29.99,SSW,203,0.0,-999.0,66,-99.99,,,-99.99,,2013-03-01 19:11:00,
2013-03-01 14:21:00,39.0,29.0,29.98,WNW,291,0.0,-999.0,67,-99.99,,,-99.99,,2013-03-01 19:21:00,
2013-03-01 14:32:00,39.0,29.0,29.98,WNW,290,0.0,-999.0,67,-99.99,,,-99.99,,2013-03-01 19:32:00,
2013-03-01 14:42:00,39.0,29.0,29.98,WNW,290,0.0,-999.0,67,-99.99,,,-99.99,,2013-03-01 19:42:00,
2013-03-01 14:52:00,39.0,29.0,29.98,West,260,0.0,-999.0,66,-99.99,,,-99.99,,2013-03-01 19:52:00,
2013-03-01 15:01:00,39.0,29.0,29.98,West,280,1.0,-999.0,67,-99.99,,,-99.99,,2013-03-01 20:01:00,
2013-03-01 15:11:00,39.0,29.0,29.98,West,280,1.0,-999.0,67,-99.99,,,-99.99,,2013-03-01 20:11:00,
2013-03-01 15:21:00,39.0,29.0,29.98,West,277,1.0,-999.0,66,-99.99,,,-99.99,,2013-03-01 20:21:00,
2013-03-01 15:32:00,39.0,29.0,29.98,West,277,1.0,-999.0,66,-99.99,,,-99.99,,2013-03-01 20:32:00,
2013-03-01 15:42:00,39.0,29.0,29.98,West,277,1.0,-999.0,66,-99.99,,,-99.99,,2013-03-01 20:42:00,
2013-03-01 15:52:00,39.0,29.0,29.98,WNW,283,0.0,-999.0,66,-99.99,,,-99.99,,2013-03-01 20:52:00,
2013-03-01 16:01:00,39.0,28.0,29.98,WSW,253,0.0,-999.0,65,-99.99,,,-99.99,,2013-03-01 21:01:00,
2013-03-01 16:11:00,38.0,28.0,29.98,West,264,1.0,-999.0,67,-99.99,,,-99.99,,2013-03-01 21:11:00,
2013-03-01 16:21:00,38.0,28.0,29.98,West,264,1.0,-999.0,67,-99.99,,,-99.99,,2013-03-01 21:21:00,
2013-03-01 16:32:00,38.0,28.0,29.99,West,265,0.0,-999.0,68,-99.99,,,-99.99,,2013-03-01 21:32:00,
2013-03-01 16:42:00,38.0,29.0,29.98,West,266,0.0,-999.0,69,-99.99,,,-99.99,,2013-03-01 21:42:00,
2013-03-01 16:52:00,38.0,29.0,29.98,West,266,0.0,-999.0,69,-99.99,,,-99.99,,2013-03-01 21:52:00,
2013-03-01 17:01:00,38.0,29.0,29.98,West,268,0.0,-999.0,70,-99.99,,,-99.99,,2013-03-01 22:01:00,
2013-03-01 17:11:00,38.0,29.0,29.98,West,272,0.0,-999.0,70,-99.99,,,-99.99,,2013-03-01 22:11:00,
2013-03-01 17:21:00,38.0,29.0,29.98,West,272,0.0,-999.0,70,-99.99,,,-99.99,,2013-03-01 22:21:00,
2013-03-01 17:32:00,37.0,28.0,29.99,West,259,1.0,-999.0,70,-99.99,,,-99.99,,2013-03-01 22:32:00,
2013-03-01 17:42:00,37.0,28.0,29.99,West,259,1.0,-999.0,70,-99.99,,,-99.99,,2013-03-01 22:42:00,
2013-03-01 17:52:00,37.0,29.0,29.99,West,263,1.0,-999.0,72,-99.99,,,-99.99,,2013-03-01 22:52:00,
2013-03-01 18:01:00,37.0,29.0,30.00,WSW,242,1.0,-999.0,72,-99.99,,,-99.99,,2013-03-01 23:01:00,
2013-03-01 18:11:00,37.0,29.0,30.00,WSW,242,1.0,-999.0,72,-99.99,,,-99.99,,2013-03-01 23:11:00,
2013-03-01 18:21:00,37.0,29.0,29.99,West,263,1.0,-999.0,72,-99.99,,,-99.99,,2013-03-01 23:21:00,
2013-03-01 18:32:00,36.0,28.0,29.99,West,275,0.0,-999.0,72,-99.99,,,-99.99,,2013-03-01 23:32:00,
2013-03-01 18:41:00,36.0,28.0,29.99,West,275,0.0,-999.0,72,-99.99,,,-99.99,,2013-03-01 23:41:00,
2013-03-01 18:52:00,36.0,28.0,29.99,West,275,0.0,-999.0,73,-99.99,,,-99.99,,2013-03-01 23:52:00,
2013-03-01 19:02:00,35.0,27.0,30.00,West,275,0.0,-999.0,73,-99.99,,,-99.99,,2013-03-02 00:02:00,
2013-03-01 19:12:00,35.0,27.0,30.00,West,275,0.0,-999.0,73,-99.99,,,-99.99,,2013-03-02 00:12:00,
2013-03-01 19:22:00,35.0,28.0,30.00,West,275,0.0,-999.0,74,-99.99,,,-99.99,,2013-03-02 00:22:00,
2013-03-01 19:32:00,34.0,27.0,30.00,West,275,0.0,-999.0,75,-99.99,,,-99.99,,2013-03-02 00:32:00,
2013-03-01 19:42:00,34.0,27.0,30.00,West,275,0.0,-999.0,76,-99.99,,,-99.99,,2013-03-02 00:42:00,
2013-03-01 19:52:00,34.0,27.0,30.00,West,275,0.0,-999.0,76,-99.99,,,-99.99,,2013-03-02 00:52:00,
2013-03-01 20:01:00,34.0,28.0,30.00,West,275,0.0,-999.0,77,-99.99,,,-99.99,,2013-03-02 01:01:00,
2013-03-01 20:11:00,34.0,28.0,30.00,West,275,0.0,-999.0,77,-99.99,,,-99.99,,2013-03-02 01:11:00,
2013-03-01 20:21:00,34.0,28.0,30.00,West,275,0.0,-999.0,78,-99.99,,,-99.99,,2013-03-02 01:21:00,
2013-03-01 20:32:00,34.0,28.0,30.00,West,275,0.0,-999.0,78,-99.99,,,-99.99,,2013-03-02 01:32:00,
2013-03-01 20:41:00,34.0,28.0,30.00,West,275,0.0,-999.0,78,-99.99,,,-99.99,,2013-03-02 01:41:00,
2013-03-01 20:52:00,34.0,28.0,30.01,West,272,0.0,-999.0,78,-99.99,,,-99.99,,2013-03-02 01:52:00,
2013-03-01 21:01:00,35.0,29.0,30.02,West,271,0.0,-999.0,77,-99.99,,,-99.99,,2013-03-02 02:01:00,
2013-03-01 21:11:00,35.0,29.0,30.02,West,271,0.0,-999.0,77,-99.99,,,-99.99,,2013-03-02 02:11:00,
2013-03-01 21:22:00,35.0,29.0,30.02,West,271,0.0,-999.0,77,-99.99,,,-99.99,,2013-03-02 02:22:00,
2013-03-01 21:32:00,35.0,29.0,30.01,West,271,0.0,-999.0,77,-99.99,,,-99.99,,2013-03-02 02:32:00,
2013-03-01 21:42:00,35.0,29.0,30.01,West,271,0.0,-999.0,77,-99.99,,,-99.99,,2013-03-02 02:42:00,
2013-03-01 21:52:00,35.0,29.0,30.01,West,264,1.0,-999.0,77,-99.99,,,-99.99,,2013-03-02 02:52:00,
2013-03-01 22:02:00,35.0,29.0,30.01,West,267,1.0,-999.0,77,-99.99,,,-99.99,,2013-03-02 03:02:00,
2013-03-01 22:11:00,35.0,29.0,30.01,West,267,1.0,-999.0,77,-99.99,,,-99.99,,2013-03-02 03:11:00,
2013-03-01 22:22:00,35.0,29.0,30.01,West,262,1.0,-999.0,78,-99.99,,,-99.99,,2013-03-02 03:22:00,
2013-03-01 22:32:00,34.0,28.0,30.01,West,267,1.0,-999.0,79,-99.99,,,-99.99,,2013-03-02 03:32:00,
2013-03-01 22:42:00,34.0,28.0,30.01,West,267,1.0,-999.0,79,-99.99,,,-99.99,,2013-03-02 03:42:00,
2013-03-01 22:52:00,34.0,28.0,30.01,West,267,1.0,-999.0,79,-99.99,,,-99.99,,2013-03-02 03:52:00,
2013-03-01 23:01:00,34.0,28.0,30.01,West,265,2.0,-999.0,80,-99.99,,,-99.99,,2013-03-02 04:01:00,
2013-03-01 23:11:00,34.0,28.0,30.01,West,263,1.0,-999.0,80,-99.99,,,-99.99,,2013-03-02 04:11:00,
2013-03-01 23:22:00,34.0,28.0,30.01,West,263,1.0,-999.0,80,-99.99,,,-99.99,,2013-03-02 04:22:00,
2013-03-01 23:32:00,34.0,28.0,30.01,West,266,1.0,-999.0,80,-99.99,,,-99.99,,2013-03-02 04:32:00,
2013-03-01 23:42:00,34.0,28.0,30.01,West,266,1.0,-999.0,80,-99.99,,,-99.99,,2013-03-02 04:42:00,
2013-03-01 23:52:00,34.0,28.0,30.00,West,272,0.0,-999.0,80,-99.99,,,-99.99,,2013-03-02 04:52:00,